JP7FSO Weather Reports


time (UTC)temp
C
wind
direction
speed
KPH
gust
KPH
rain 1hr
cm
rain 24hr
cm
rain mn
cm
humidity
%
barometer
mb
20260906093051 20 127 0.0 0.0 0.00 0.00 0.03 92 1008.3
20260906091601 20 75 0.0 0.0 0.00 0.00 0.03 92 1008.4
20260906090049 20 113 0.0 0.0 0.00 0.00 0.03 92 1008.5
20260906084551 20 97 1.6 0.0 0.00 0.00 0.03 91 1008.4
20260906083051 20 111 0.0 0.0 0.00 0.00 0.03 90 1008.4
20260906081547 20 118 0.0 0.0 0.00 0.00 0.03 89 1008.4
20260906080047 20 101 0.0 0.0 0.00 0.00 0.03 89 1008.4
20260906074550 20 120 0.0 0.0 0.00 0.00 0.03 88 1008.4
20260906073045 20 129 0.0 0.0 0.00 0.00 0.03 87 1008.4
20260906071546 20 96 0.0 0.0 0.00 0.00 0.03 86 1008.4
20260906070045 21 205 0.0 0.0 0.00 0.00 0.00 85 1008.5
20260906064544 21 226 0.0 0.0 0.00 0.00 0.00 84 1008.5
20260906063044 21 223 0.0 0.0 0.00 0.00 0.00 83 1008.6
20260906061544 21 208 0.0 0.0 0.00 0.00 0.00 81 1008.6
20260906060042 21 122 1.6 0.0 0.00 0.00 0.00 80 1008.6
20260906054544 21 68 1.6 0.0 0.00 0.00 0.00 78 1008.8
20260906053051 21 143 0.0 0.0 0.00 0.00 0.00 80 1008.5
20260906051541 21 160 0.0 0.0 0.00 0.00 0.00 80 1008.6
20260906050050 21 150 0.0 0.0 0.00 0.00 0.00 81 1008.7
20260906044539 21 140 0.0 0.0 0.00 0.00 0.00 81 1008.8
20260906043039 21 162 0.0 0.0 0.00 0.00 0.00 82 1008.9
20260906041538 21 165 0.0 0.0 0.00 0.00 0.00 84 1008.9
20260906040040 21 165 0.0 0.0 0.00 0.00 0.00 84 1009.2
20260906034538 21 214 0.0 0.0 0.00 0.00 0.00 85 1009.4
20260906033047 21 218 0.0 0.0 0.00 0.00 0.00 85 1009.4
20260906031538 21 165 0.0 0.0 0.00 0.00 0.00 84 1009.6
20260906030039 21 210 0.0 0.0 0.00 0.00 0.00 83 1009.8
20260906024544 21 244 0.0 0.0 0.00 0.00 0.00 82 1009.9
20260906023047 21 191 0.0 0.0 0.00 0.00 0.00 82 1009.9
20260906021535 21 227 0.0 0.0 0.00 0.00 0.00 83 1009.9
20260906020037 21 253 0.0 0.0 0.00 0.00 0.00 83 1009.9
20260906014533 21 167 0.0 0.0 0.00 0.00 0.00 83 1010.0
20260906013046 21 252 0.0 0.0 0.00 0.00 0.00 82 1010.1
20260906011535 21 191 0.0 0.0 0.00 0.00 0.00 81 1010.3
20260906010031 21 163 0.0 0.0 0.00 0.00 0.00 80 1010.2
20260906004530 21 158 0.0 0.0 0.00 0.00 0.00 79 1010.4
20260906003029 21 181 0.0 0.0 0.00 0.00 0.00 78 1010.4
20260906001529 21 155 0.0 0.0 0.00 0.00 0.00 78 1010.4
20260906000045 21 145 0.0 0.0 0.00 0.00 0.00 79 1010.4
20260905234528 21 160 0.0 0.0 0.00 0.00 0.00 81 1010.4
20260905233022 21 160 0.0 0.0 0.00 0.00 0.00 84 1010.1
20260905231521 20 214 0.0 0.0 0.00 0.00 0.00 86 1010.0
20260905230019 20 136 0.0 0.0 0.00 0.00 0.00 88 1009.9
20260905224516 20 193 0.0 0.0 0.00 0.00 0.00 89 1009.9
20260905223013 20 245 0.0 0.0 0.00 0.00 0.00 90 1009.9
20260905221512 20 148 0.0 0.0 0.00 0.00 0.00 90 1009.8
20260905220012 19 115 0.0 0.0 0.00 0.00 0.00 90 1009.8
20260905214509 19 187 0.0 0.0 0.00 0.00 0.00 91 1009.8
20260905213006 19 195 0.0 0.0 0.00 0.00 0.00 90 1009.6
20260905211505 18 269 0.0 0.0 0.00 0.00 0.00 90 1009.8
20260905210003 18 269 0.0 0.0 0.00 0.00 0.00 90 1009.4
20260905204503 18 285 0.0 0.0 0.00 0.00 0.00 90 1009.4
20260905203100 18 285 0.0 0.0 0.00 0.00 0.00 89 1009.3
20260905201600 18 285 0.0 0.0 0.00 0.00 0.00 89 1009.2
20260905200104 18 285 0.0 0.0 0.00 0.00 0.00 89 1009.3
20260905194610 18 285 0.0 0.0 0.00 0.00 0.00 89 1009.0
20260905193057 18 255 0.0 0.0 0.00 0.00 0.00 89 1009.0
20260905191559 18 168 0.0 0.0 0.00 0.00 0.00 88 1008.9
20260905190055 18 181 0.0 0.0 0.00 0.00 0.00 87 1008.8
20260905184612 18 219 0.0 0.0 0.00 0.00 0.00 87 1008.8
20260905183054 18 219 0.0 0.0 0.00 0.00 0.00 87 1008.8
20260905181558 19 219 0.0 0.0 0.00 0.00 0.00 87 1008.9
20260905180053 19 219 0.0 0.0 0.00 0.00 0.00 86 1008.9
20260905174551 19 219 0.0 0.0 0.00 0.00 0.00 86 1009.1
20260905173052 19 219 0.0 0.0 0.00 0.00 0.00 86 1009.0
20260905171548 19 219 0.0 0.0 0.00 0.00 0.00 86 1008.8
20260905170048 19 219 0.0 0.0 0.00 0.00 0.00 86 1008.9
20260905164547 19 219 0.0 0.0 0.00 0.00 0.00 86 1009.0
20260905163046 19 221 0.0 0.0 0.00 0.00 0.00 85 1008.8
20260905161547 20 114 0.0 0.0 0.00 0.00 0.00 85 1008.9
20260905160048 20 114 0.0 0.0 0.00 0.00 0.00 85 1008.8
20260905154607 20 114 0.0 0.0 0.00 0.00 0.00 85 1008.8
20260905153041 20 114 0.0 0.0 0.00 0.00 0.00 85 1009.0
20260905151540 20 114 0.0 0.0 0.00 0.00 0.00 85 1009.2
20260905150039 20 114 0.0 0.0 0.00 0.00 0.00 84 1009.1
20260905144540 20 131 0.0 0.0 0.00 0.00 0.00 83 1009.0
20260905143037 20 192 0.0 0.0 0.00 0.00 0.00 83 1008.9
20260905141537 20 192 0.0 0.0 0.00 0.00 0.00 82 1008.7
20260905140041 20 192 0.0 0.0 0.00 0.00 0.00 81 1009.2
20260905134537 20 137 0.0 0.0 0.00 0.00 0.00 81 1009.2
20260905133042 21 115 0.0 0.0 0.00 0.00 0.00 80 1008.8
20260905131540 21 115 0.0 0.0 0.00 0.00 0.00 79 1008.8
20260905130038 21 115 0.0 0.0 0.00 0.00 0.00 78 1008.9
20260905124535 21 214 0.0 0.0 0.00 0.00 0.00 77 1008.8
20260905123032 21 214 0.0 0.0 0.00 0.00 0.00 77 1008.8
20260905121532 21 214 0.0 0.0 0.00 0.00 0.00 77 1008.8
20260905120031 21 214 0.0 0.0 0.00 0.00 0.00 77 1008.9
20260905114532 21 214 0.0 0.0 0.00 0.00 0.00 76 1008.9
20260905113042 21 214 0.0 0.0 0.00 0.00 0.00 75 1008.6
20260905111543 21 214 0.0 0.0 0.00 0.00 0.00 74 1008.4
20260905110038 22 181 0.0 0.0 0.00 0.00 0.00 74 1008.4
20260905104529 22 251 0.0 0.0 0.00 0.00 0.00 72 1008.3
20260905103028 22 251 0.0 0.0 0.00 0.00 0.00 71 1008.2
20260905101540 22 251 0.0 0.0 0.00 0.00 0.00 71 1007.8
20260905100031 22 161 0.0 0.0 0.00 0.00 0.00 70 1007.5
20260905094509 23 228 0.0 0.0 0.00 0.00 0.00 68 1007.1